Voltar ao catálogo

CZ-4 DEB

AtivoSSO
NORAD 28071·DEBRIS·🇨🇳 China

Lançado Oct 14, 1999 de Taiyuan Satellite Launch Center

Loading…

Próximas Passagens (próximas 24 horas)

TLE

EnvelhecendoSource: Space-Track

Época: Sep 10, 2026, 01:40 UTC

1 28071U 99057NB  26253.06986206  .00000113  00000-0  52907-4 0  9995
2 28071  98.6147 184.2266 0106578   1.1194  63.3126 14.34510091258731

Acompanhe CZ-4 DEB em tempo real com AllMySat

Download on the App Store